Jefferson, NC

11:19 PM EDT on August 25, 2019 (GMT -0400)
Ashe County

Weather History for KGEV - June, 2019

Change the Weather History Date:

Thursday, June 6, 2019

  Actual Average Record
Temperature  
Mean Temperature 69 °F -  
Max Temperature 75 °F 75 °F 87 °F (2005)
Min Temperature 62 °F 50 °F 35 °F (1976)
Cooling Degree Days 4    
Growing Degree Days 19 (Base 50)    
Moisture  
Dew Point 62 °F    
Average Humidity 82    
Maximum Humidity 100    
Minimum Humidity 57    
Precipitation  
Precipitation 0.13 in - - ()
Sea Level Pressure  
Sea Level Pressure 29.99 in    
Wind  
Wind Speed 8 mph (West)    
Max Wind Speed 21 mph    
Max Gust Speed 34 mph    
Visibility 8 miles    
Events Rain    
Averages and records for this station are not official NWS values.
T = Trace of Precipitation, MM = Missing Value Source: NWS Daily Summary

Daily Weather History Graph

Daily Weather History Graph

Search for Another Location

Airport or City:

Astronomy

Jun. 06, 2019 Rise Set
Actual Time 6:07 AM EDT 8:41 PM EDT
Civil Twilight 5:37 AM EDT 9:11 PM EDT
Nautical Twilight 5:00 AM EDT 9:48 PM EDT
Astronomical Twilight 4:18 AM EDT 10:30 PM EDT
Moon 9:14 AM EDT (6/6) 11:59 PM EDT (6/6)
Length of Visible Light 15h 33m
Length of Day
14h 33m
Waxing Crescent, 13% of the Moon is Illuminated
Jun 6
Waxing Crescent
Jun 10
First Quarter
Jun 17
Full
Jun 25
Last Quarter
Jul 2
New

Hourly Weather History & Observations

Time (EDT) Temp. Dew Point Humidity Pressure Visibility Wind Dir Wind Speed Gust Speed Precip Events Conditions
12:05 AM 68.7 °F 61.2 °F 77% 30.04 in 10.0 mi WSW 5.8 mph - N/A   Scattered Clouds
12:25 AM 68.9 °F 61.7 °F 78% 30.03 in 10.0 mi WSW 8.1 mph - N/A   Scattered Clouds
12:45 AM 69.1 °F 61.7 °F 77% 30.02 in 10.0 mi West 10.4 mph - N/A   Clear
1:05 AM 69.1 °F 61.7 °F 77% 30.01 in 10.0 mi WSW 6.9 mph 17.3 mph N/A   Clear
1:25 AM 69.1 °F 61.7 °F 77% 30.00 in 10.0 mi WSW 9.2 mph 17.3 mph N/A   Scattered Clouds
1:45 AM 68.9 °F 61.3 °F 77% 30.00 in 10.0 mi West 16.1 mph 28.8 mph N/A   Clear
2:05 AM 68.5 °F 61.7 °F 79% 30.00 in 10.0 mi West 8.1 mph 17.3 mph N/A   Scattered Clouds
2:25 AM 68.4 °F 61.7 °F 79% 29.99 in 10.0 mi WSW 9.2 mph 21.9 mph N/A   Scattered Clouds
2:45 AM 68.5 °F 61.9 °F 79% 29.99 in 10.0 mi West 12.7 mph 19.6 mph N/A   Mostly Cloudy
3:05 AM 68.5 °F 61.7 °F 79% 29.99 in 10.0 mi West 9.2 mph 20.7 mph N/A   Mostly Cloudy
3:25 AM 68.5 °F 61.7 °F 79% 29.98 in 10.0 mi West 10.4 mph 18.4 mph N/A   Mostly Cloudy
3:45 AM 68.4 °F 61.7 °F 79% 29.97 in 10.0 mi West 15.0 mph 21.9 mph N/A   Mostly Cloudy
4:05 AM 68.0 °F 61.7 °F 80% 29.97 in 10.0 mi West 17.3 mph 21.9 mph N/A   Mostly Cloudy
4:25 AM 65.8 °F 62.2 °F 88% 29.97 in 10.0 mi West 15.0 mph 18.4 mph 0.02 in Rain Light Rain
4:45 AM 66.4 °F 62.4 °F 87% 29.96 in 10.0 mi West 17.3 mph 23.0 mph 0.02 in   Overcast
5:05 AM 66.4 °F 61.9 °F 85% 29.95 in 10.0 mi West 15.0 mph 27.6 mph N/A   Mostly Cloudy
5:25 AM 66.6 °F 61.3 °F 83% 29.94 in 10.0 mi West 19.6 mph 34.5 mph N/A   Scattered Clouds
5:45 AM 66.2 °F 61.7 °F 85% 29.94 in 10.0 mi West 20.7 mph 33.4 mph N/A   Clear
6:25 AM 66.6 °F 61.3 °F 83% 29.96 in 10.0 mi WNW 15.0 mph 21.9 mph N/A   Scattered Clouds
6:45 AM 66.9 °F 61.0 °F 81% 29.97 in 10.0 mi West 12.7 mph 19.6 mph N/A   Scattered Clouds
7:05 AM 67.3 °F 61.0 °F 80% 29.98 in 10.0 mi SSW 3.5 mph 23.0 mph N/A   Mostly Cloudy
7:25 AM 67.5 °F 61.5 °F 81% 29.99 in 10.0 mi WNW 8.1 mph 16.1 mph N/A   Overcast
8:05 AM 68.0 °F 62.1 °F 81% 29.99 in 10.0 mi West 13.8 mph 25.3 mph N/A   Scattered Clouds
8:25 AM 67.8 °F 62.1 °F 82% 30.00 in 10.0 mi West 15.0 mph 24.2 mph N/A   Mostly Cloudy
8:45 AM 68.2 °F 61.9 °F 80% 30.00 in 10.0 mi WNW 10.4 mph 19.6 mph N/A   Mostly Cloudy
9:05 AM 69.1 °F 61.9 °F 78% 30.00 in 10.0 mi West 15.0 mph 25.3 mph N/A   Mostly Cloudy
9:25 AM 68.9 °F 61.9 °F 78% 30.01 in 10.0 mi West 13.8 mph 23.0 mph N/A   Mostly Cloudy
9:45 AM 70.2 °F 62.6 °F 77% 30.01 in 10.0 mi West 5.8 mph - N/A   Mostly Cloudy
10:05 AM 70.5 °F 62.1 °F 74% 30.01 in 10.0 mi WNW 10.4 mph - N/A   Mostly Cloudy
10:25 AM 71.1 °F 61.9 °F 73% 30.01 in 10.0 mi West 9.2 mph 18.4 mph N/A   Mostly Cloudy
10:45 AM 72.5 °F 62.6 °F 71% 30.02 in 10.0 mi WNW 11.5 mph - N/A   Overcast
11:05 AM 71.4 °F 62.6 °F 74% 30.02 in 10.0 mi West 6.9 mph - N/A   Overcast
11:25 AM 70.7 °F 61.9 °F 74% 30.02 in 10.0 mi Calm Calm - N/A   Overcast
11:45 AM 71.6 °F 62.2 °F 72% 30.02 in 10.0 mi WNW 3.5 mph - N/A   Overcast
12:05 PM 72.5 °F 62.2 °F 70% 30.02 in 10.0 mi WSW 4.6 mph - N/A   Mostly Cloudy
12:25 PM 73.6 °F 62.2 °F 68% 30.02 in 10.0 mi West 6.9 mph - N/A   Overcast
12:45 PM 73.2 °F 61.9 °F 68% 30.01 in 10.0 mi WNW 9.2 mph - N/A   Overcast
1:05 PM 74.5 °F 62.2 °F 66% 30.00 in 10.0 mi West 9.2 mph - N/A   Mostly Cloudy
1:25 PM 74.1 °F 61.2 °F 64% 30.00 in 10.0 mi West 10.4 mph - N/A   Mostly Cloudy
1:45 PM 73.0 °F 62.6 °F 70% 30.00 in 10.0 mi West 6.9 mph - N/A   Overcast
2:05 PM 72.7 °F 62.8 °F 71% 29.99 in 10.0 mi West 8.1 mph - N/A Rain Light Rain
2:25 PM 72.0 °F 63.7 °F 75% 29.99 in 10.0 mi WNW 5.8 mph - N/A   Light Drizzle
2:45 PM 73.9 °F 62.4 °F 67% 29.98 in 10.0 mi WSW 3.5 mph - N/A   Mostly Cloudy
3:05 PM 74.3 °F 62.4 °F 66% 29.97 in 10.0 mi Calm Calm - N/A   Mostly Cloudy
3:25 PM 75.6 °F 59.5 °F 57% 29.97 in 10.0 mi WNW 3.5 mph - N/A   Mostly Cloudy
3:45 PM 74.3 °F 60.8 °F 63% 29.97 in 10.0 mi Calm Calm - N/A   Mostly Cloudy
4:05 PM 70.9 °F 63.5 °F 77% 29.97 in 10.0 mi South 8.1 mph - N/A   Overcast
4:25 PM 67.1 °F 61.7 °F 83% 29.97 in 10.0 mi South 3.5 mph - N/A   Overcast
4:45 PM 64.6 °F 62.4 °F 93% 29.97 in 1.5 mi Calm Calm - 0.08 in Rain Heavy Rain
5:05 PM 64.4 °F 61.5 °F 90% 29.97 in 7.0 mi West 6.9 mph - N/A Rain Light Rain
5:25 PM 65.3 °F 61.2 °F 86% 29.97 in 10.0 mi WNW 6.9 mph - 0.01 in Rain Light Rain
5:45 PM 65.5 °F 61.7 °F 88% 29.96 in 10.0 mi WNW 4.6 mph - 0.02 in Rain Light Rain
6:25 PM 64.9 °F 62.8 °F 93% 29.96 in 10.0 mi Calm Calm - 0.01 in Rain Light Rain
6:45 PM 64.6 °F 63.0 °F 94% 29.97 in 7.0 mi Calm Calm - 0.01 in Rain Light Rain
7:05 PM 64.0 °F 63.7 °F 99% 29.97 in 4.0 mi Calm Calm - N/A   Overcast
7:25 PM 64.6 °F 64.2 °F 99% 29.97 in 5.0 mi Calm Calm - N/A   Overcast
7:45 PM 64.6 °F 64.4 °F 99% 29.98 in 3.0 mi Calm Calm - N/A   Overcast
8:05 PM 64.4 °F 63.9 °F 98% 29.98 in 3.0 mi Calm Calm - N/A   Mostly Cloudy
8:25 PM 63.9 °F 63.7 °F 99% 29.98 in 3.0 mi Calm Calm - N/A Rain Light Rain
8:45 PM 63.9 °F 63.7 °F 99% 29.98 in 1.0 mi Calm Calm - N/A   Overcast
9:05 PM 63.9 °F 63.9 °F 100% 29.98 in 1.5 mi Calm Calm - N/A   Overcast
9:25 PM 64.0 °F 64.0 °F 100% 29.99 in 3.0 mi Calm Calm - N/A Rain Light Rain
10:05 PM 64.2 °F 63.5 °F 98% 29.98 in 10.0 mi Calm Calm - N/A   Light Drizzle
10:25 PM 64.0 °F 62.6 °F 95% 29.99 in 10.0 mi Calm Calm - N/A   Mostly Cloudy
10:45 PM 63.1 °F 63.1 °F 100% 29.99 in 0.2 mi Calm Calm - N/A   Light Drizzle
11:05 PM 63.0 °F 63.0 °F 100% 29.99 in 2.5 mi Calm Calm - N/A   Light Drizzle
11:25 PM 63.0 °F 63.0 °F 100% 29.99 in 0.5 mi Calm Calm - N/A Rain Light Rain
11:45 PM 62.6 °F 62.6 °F 100% 29.99 in 0.2 mi Calm Calm - N/A   Drizzle